EW9869 Weather Reports


time (UTC)temp
C
wind
direction
speed
KPH
gust
KPH
rain 1hr
cm
rain 24hr
cm
rain mn
cm
humidity
%
barometer
mb
20260507100033 3 329 0.0 0.0 0.00 0.00 0.00 73 1018.8
20260507094619 3 329 0.0 0.0 0.00 0.00 0.00 74 1018.9
20260507093017 3 329 0.0 0.0 0.00 0.00 0.00 73 1019.0
20260507091518 4 329 0.0 0.0 0.00 0.00 0.00 72 1019.2
20260507090015 4 329 0.0 0.0 0.00 0.00 0.00 69 1019.4
20260507084512 4 329 0.0 0.0 0.00 0.00 0.00 66 1019.4
20260507083011 4 329 0.0 0.0 0.00 0.00 0.00 65 1019.3
20260507081511 4 329 0.0 0.0 0.00 0.00 0.00 64 1019.3
20260507080009 4 329 0.0 0.0 0.00 0.00 0.00 63 1019.3
20260507074506 5 329 0.0 0.0 0.00 0.00 0.00 63 1019.3
20260507073005 5 329 0.0 1.6 0.00 0.00 0.00 62 1019.4
20260507071505 5 329 0.0 0.0 0.00 0.00 0.00 62 1019.4
20260507070002 5 329 0.0 0.0 0.00 0.00 0.00 61 1019.4
20260507064613 5 329 0.0 0.0 0.00 0.00 0.00 61 1019.4
20260507063115 5 329 0.0 0.0 0.00 0.00 0.00 60 1019.4
20260507061600 6 329 0.0 0.0 0.00 0.00 0.00 59 1019.4
20260507060105 6 329 0.0 0.0 0.00 0.00 0.00 58 1019.3
20260507054559 6 329 0.0 0.0 0.00 0.00 0.00 58 1019.3
20260507053059 6 329 0.0 0.0 0.00 0.00 0.00 57 1019.3
20260507053000 6 329 0.0 0.0 0.00 0.00 0.00 57 1019.2
20260507051557 7 329 0.0 0.0 0.00 0.00 0.00 56 1019.3
20260507050059 7 329 0.0 0.0 0.00 0.00 0.00 54 1019.4
20260507044600 7 329 0.0 0.0 0.00 0.00 0.00 53 1019.3
20260507043058 8 329 0.0 0.0 0.00 0.00 0.00 53 1019.3
20260507041601 8 329 0.0 0.0 0.00 0.00 0.00 52 1019.1
20260507040107 8 329 0.0 0.0 0.00 0.00 0.00 51 1019.0
20260507034618 10 329 0.0 0.0 0.00 0.00 0.00 49 1018.8
20260507033106 10 329 0.0 0.0 0.00 0.00 0.00 47 1018.6
20260507031555 11 329 0.0 0.0 0.00 0.00 0.00 44 1018.5
20260507030058 13 329 0.0 0.0 0.00 0.00 0.00 44 1018.4
20260507024600 13 329 0.0 0.0 0.00 0.00 0.00 42 1018.3
20260507023053 13 329 0.0 6.4 0.00 0.00 0.00 43 1018.2
20260507021601 14 331 0.0 16.1 0.00 0.00 0.00 43 1018.2
20260507020052 14 340 0.0 9.7 0.00 0.00 0.00 39 1018.2
20260507014553 15 345 0.0 0.0 0.00 0.00 0.00 34 1018.2
20260507013109 15 348 0.0 4.8 0.00 0.00 0.00 36 1018.2
20260507011551 16 343 0.0 6.4 0.00 0.00 0.00 31 1018.2
20260507010054 16 341 0.0 8.0 0.00 0.00 0.00 32 1018.1
20260507004549 16 337 0.0 16.1 0.00 0.00 0.00 31 1018.1
20260507003048 16 333 0.0 9.7 0.00 0.00 0.00 34 1018.1
20260507001607 16 65 0.0 14.5 0.00 0.00 0.00 34 1018.2
20260507000048 16 348 0.0 16.1 0.00 0.00 0.00 36 1018.2
20260506234556 16 341 0.0 3.2 0.00 0.00 0.00 37 1018.2
20260506233045 16 11 0.0 4.8 0.00 0.00 0.00 32 1018.2
20260506231546 16 344 0.0 14.5 0.00 0.00 0.00 36 1018.5
20260506230045 15 84 0.0 12.9 0.00 0.00 0.00 34 1018.6
20260506224600 15 360 0.0 9.7 0.00 0.00 0.00 38 1018.6
20260506223043 15 20 0.0 0.0 0.00 0.00 0.00 37 1018.7
20260506221543 16 16 0.0 8.0 0.00 0.00 0.00 37 1018.9
20260506220048 16 295 1.6 17.7 0.00 0.00 0.00 41 1019.0
20260506214541 16 325 0.0 9.7 0.00 0.00 0.00 39 1019.2
20260506213040 16 36 0.0 0.0 0.00 0.00 0.00 37 1019.4
20260506211547 15 5 0.0 9.7 0.00 0.00 0.00 42 1019.7
20260506210038 15 61 0.0 1.6 0.00 0.00 0.00 37 1019.7
20260506204539 15 339 0.0 14.5 0.00 0.00 0.00 38 1019.8
20260506203035 15 9 0.0 6.4 0.00 0.00 0.00 40 1019.8
20260506201533 15 53 0.0 9.7 0.00 0.00 0.00 39 1019.8
20260506200032 15 334 1.6 16.1 0.00 0.00 0.00 43 1020.3
20260506194535 15 5 0.0 1.6 0.00 0.00 0.00 43 1020.2
20260506193030 15 342 0.0 12.9 0.00 0.00 0.00 41 1020.4
20260506191529 14 321 0.0 17.7 0.00 0.00 0.00 45 1020.4
20260506190029 15 324 0.0 4.8 0.00 0.00 0.00 43 1020.7
20260506184529 14 5 0.0 9.7 0.00 0.00 0.00 42 1020.6
20260506183026 14 5 0.0 4.8 0.00 0.00 0.00 45 1020.8
20260506181524 14 19 0.0 1.6 0.00 0.00 0.00 43 1020.6
20260506180022 13 339 0.0 22.5 0.00 0.00 0.00 45 1020.8
20260506174520 13 5 0.0 1.6 0.00 0.00 0.00 46 1020.5
20260506173022 13 28 0.0 4.8 0.00 0.00 0.00 46 1020.5
20260506171523 13 46 0.0 4.8 0.00 0.00 0.00 45 1020.4
20260506170017 13 360 0.0 0.0 0.00 0.00 0.00 46 1020.4
20260506164517 13 67 0.0 0.0 0.00 0.00 0.00 44 1020.4
20260506163015 12 328 0.0 1.6 0.00 0.00 0.00 46 1020.3
20260506161510 12 86 0.0 9.7 0.00 0.00 0.00 46 1020.2
20260506160007 12 48 0.0 3.2 0.00 0.00 0.00 51 1020.1
20260506154507 10 170 0.0 0.0 0.00 0.00 0.00 66 1020.1
20260506153100 8 170 0.0 0.0 0.00 0.00 0.00 78 1020.3
20260506151554 7 170 0.0 0.0 0.00 0.00 0.00 83 1020.4
20260506150051 5 170 0.0 0.0 0.00 0.00 0.00 87 1020.5
20260506144550 4 170 0.0 0.0 0.00 0.00 0.00 92 1020.5
20260506143041 3 170 0.0 0.0 0.00 0.00 0.00 95 1020.4
20260506141536 2 170 0.0 0.0 0.00 0.00 0.00 95 1020.4
20260506140035 1 170 0.0 0.0 0.00 0.00 0.00 94 1020.2
20260506134529 0 170 0.0 0.0 0.00 0.00 0.00 94 1020.1
20260506133027 0 170 0.0 0.0 0.00 0.00 0.00 94 1019.8
20260506131540 0 170 0.0 0.0 0.00 0.00 0.00 93 1019.8
20260506130034 0 170 0.0 0.0 0.00 0.00 0.00 93 1019.5
20260506124519 0 170 0.0 0.0 0.00 0.00 0.00 93 1019.3
20260506123016 0 170 0.0 0.0 0.00 0.00 0.00 92 1019.2
20260506121516 0 170 0.0 0.0 0.00 0.00 0.00 92 1019.0
20260506120018 0 170 0.0 0.0 0.00 0.00 0.00 92 1018.9
20260506114516 0 170 0.0 0.0 0.00 0.00 0.00 91 1018.8
20260506113012 0 170 0.0 0.0 0.00 0.00 0.00 91 1018.7
20260506111511 0 170 0.0 0.0 0.00 0.00 0.00 92 1018.6
20260506110011 0 170 0.0 0.0 0.00 0.00 0.00 91 1018.4
20260506104508 0 170 0.0 0.0 0.00 0.00 0.00 92 1018.2
20260506103007 0 170 0.0 0.0 0.00 0.00 0.00 92 1018.1
20260506101505 0 170 0.0 0.0 0.00 0.00 0.00 92 1017.9